This is the latest recevied weather packets stored in our database for station/object W9GWP. If no packets are shown the sender has not sent any weather packets the latest 10 day(s).
| Time | Temp. | Humidity | Pressure | Rain* | Wind** | Luminosity | Snow |
|---|---|---|---|---|---|---|---|
| 1777715965 | -1.67° C | 97% | 1048.3 hPa | 0 mm | - | 0 W/m² | - |
| 1777715063 | -1.67° C | 97% | 1048.4 hPa | 0 mm | - | 0 W/m² | - |
| 1777714162 | -1.67° C | 97% | 1048.4 hPa | 0 mm | - | 0 W/m² | - |
| 1777713260 | -2.22° C | 96% | 1048.4 hPa | 0 mm | - | 0 W/m² | - |
| 1777712356 | -1.11° C | 96% | 1048.3 hPa | 0 mm | - | 0 W/m² | - |
| 1777711452 | -1.67° C | 96% | 1048.3 hPa | 0 mm | - | 0 W/m² | - |
| 1777710548 | -1.67° C | 96% | 1048.2 hPa | 0 mm | - | 0 W/m² | - |
| 1777709645 | -1.67° C | 96% | 1047.9 hPa | 0 mm | - | 0 W/m² | - |
| 1777708741 | -1.67° C | 96% | 1048 hPa | 0 mm | - | 0 W/m² | - |
| 1777707840 | -2.22° C | 96% | 1048.1 hPa | 0 mm | - | 0 W/m² | - |
| 1777706937 | -2.22° C | 95% | 1048.2 hPa | 0 mm | - | 0 W/m² | - |
| 1777706034 | -1.67° C | 95% | 1048.3 hPa | 0 mm | - | 0 W/m² | - |
| 1777705135 | -1.67° C | 95% | 1048.2 hPa | 0 mm | - | 0 W/m² | - |
| 1777704234 | -1.11° C | 95% | 1048.6 hPa | 0 mm | - | 0 W/m² | - |
| 1777703331 | -1.11° C | 95% | 1048.7 hPa | 0 mm | - | 0 W/m² | - |
| 1777702431 | -1.11° C | 95% | 1048.6 hPa | 0 mm | - | 0 W/m² | - |
| 1777701531 | -1.11° C | 95% | 1048.9 hPa | 0 mm | - | 0 W/m² | - |
| 1777700631 | -0.56° C | 95% | 1048.8 hPa | 0 mm | - | 0 W/m² | - |
| 1777699729 | -0.56° C | 94% | 1049 hPa | 0 mm | - | 0 W/m² | - |
| 1777698823 | -0.56° C | 93% | 1048.9 hPa | 0 mm | - | 0 W/m² | - |
| 1777697918 | -0.56° C | 93% | 1048.9 hPa | 0 mm | - | 0 W/m² | - |
| 1777697013 | -0.56° C | 93% | 1048.4 hPa | 0 mm | - | 0 W/m² | - |
| 1777696108 | 0° C | 92% | 1048.3 hPa | 0 mm | - | 0 W/m² | - |
| 1777695206 | 0° C | 92% | 1048.4 hPa | 0 mm | - | 0 W/m² | - |
| 1777694302 | 0° C | 90% | 1048.4 hPa | 0 mm | - | 0 W/m² | - |
* Rain latest hour (hover to see other rain measurements)
** Current wind speed in m/s (hover to see current wind gust speed)